Regional Weather Roundup
Issued by NWS

Home | Current Version | Previous Version | Graphics & Text | Print | Product List | Glossary On
Versions: 1 2 3 4 5 6 7 8 9 10 11 12 13 14 15 16 17 18 19 20 21 22 23 24 25 26 27 28 29 30 31 32 33 34 35 36 37 38 39 40 41 42 43 44 45 46 47 48 49 50
000
ASUS43 KFSD 222310
RWRSD

WEATHER ROUNDUP FOR SOUTH DAKOTA
NATIONAL WEATHER SERVICE SIOUX FALLS SD
600 PM CDT TUE APR 22 2014

NOTE: "FAIR" INDICATES FEW OR NO CLOUDS BELOW 12,000 FEET WITH NO
SIGNIFICANT WEATHER AND/OR OBSTRUCTIONS TO VISIBILITY.


SDZ001>005-009-010-012>017-230000-
NORTHWEST AND NORTH CENTRAL SOUTH DAKOTA

CITY           SKY/WX    TMP DP  RH WIND       PRES   REMARKS
BUFFALO          N/A     69  36  29 E23G35    29.58F
MOBRIDGE       CLOUDY    65  30  27 SE29G38   29.77F
$$

SDZ012>016-024>037-041>051-057-063-072>074-230000-
SOUTHWEST AND SOUTH CENTRAL SOUTH DAKOTA

CITY           SKY/WX    TMP DP  RH WIND       PRES   REMARKS
RAPID CTY ARPT CLOUDY    73  44  35 S20       29.61F
PIERRE         PTSUNNY   68  34  28 SE29G40   29.73F
CUSTER         CLOUDY    64  35  34 SW9       29.77R
ELLSWORTH AFB  CLOUDY    73  46  37 S17       29.61F
PHILIP         CLOUDY    78  40  25 S17       29.62F
PINE RIDGE     CLOUDY    79  39  23 SW13      29.66F
SPEARFISH      FAIR      68  45  42 E16       29.65F
WINNER         FAIR      76  32  20 S28G37    29.76F
$$

SDZ004>011-016>023-039-040-230000-
NORTHEAST SOUTH DAKOTA

CITY           SKY/WX    TMP DP  RH WIND       PRES   REMARKS
ABERDEEN       PTSUNNY   65  31  28 SE17G25   29.91F
WATERTOWN      CLOUDY    62  32  32 SE14      29.96S
SISSETON         N/A     62  31  31 SE14      29.96F
$$

SDZ017-020-022-023-036>040-048>070-230000-
SOUTHEAST SOUTH DAKOTA

CITY           SKY/WX    TMP DP  RH WIND       PRES   REMARKS
SIOUX FALLS    CLOUDY    64  31  28 SE13      29.96F
HURON          CLOUDY    64  28  25 SE16G28   29.90F
CHAMBERLAIN      N/A     71  32  23 SE28G35   29.81F
MITCHELL       PTSUNNY   68  30  24 SE21G33   29.92F
YANKTON        PTSUNNY   66  30  26 SE21G26   29.93F
$$

ABBREVIATIONS USED IN REMARKS
   TC - TEMPERATURE IN CELSIUS
  WCI - WIND CHILL INDEX
   HX - HEAT INDEX
  VSB - VISIBILITY




USA.gov is the U.S. government's official web portal to all federal, state and local government web resources and services.